Find Shiyan 20B

NORAD ID: 54700 Int'l Des: 2022-169 Owner: SAST Country: CN operational
LEOCIRCULAR

リアルタイム位置

3D地球を読み込み中...

Shiyan 20Bについて

説明を読み込み中...

次回通過

Passes for default location (London). Set your location on the main map for personalized predictions.

高度履歴

Loading altitude history...

軌道要素

1 54700U 22169B 26104.94034043 -.00000050 00000-0 33900-4 0 9991
2 54700 59.9959 89.5327 0018398 154.0940 206.1020 14.29518806174311
Epoch: Apr 14, 2026 • Age: 7 hours

現在のステータス

高度 782.3 km
速度 7.47 km/s
衛星直下点 28.18°N, 42.33°W
打ち上げ日 Dec 12, 2022
運用期間 3.3 years
タイプ other

技術仕様

分類 Payload
質量 500.00 kg
乾燥質量 500.00 kg
総質量 500.00 kg
長さ 2.50 m
直径 2.50 m
スパン 5.00 m
形状 Box + 2 Pan
製造者 SAST
フェーズステータス In Orbit
所有者/国 SAST/CN

Most Searched